Change the Weather History Date:

Wednesday, September 17, 2014

  Actual Average Record
Temperature  
Mean Temperature 64 °F -  
Max Temperature 80 °F 76 °F 97 °F (1953)
Min Temperature 48 °F 50 °F 30 °F (1981)
Degree Days  
Heating Degree Days 1    
Growing Degree Days 14 (Base 50)    
Moisture  
Dew Point 57 °F    
Average Humidity 82    
Maximum Humidity 100    
Minimum Humidity 49    
Precipitation  
Precipitation 0.00 in - - ()
Sea Level Pressure  
Sea Level Pressure 29.94 in    
Wind  
Wind Speed 6 mph (ESE)    
Max Wind Speed 10 mph    
Max Gust Speed -    
Visibility 8 miles    
Events Fog    
Averages and records for this station are not official NWS values.
T = Trace of Precipitation, MM = Missing Value Source: NWS Daily Summary

Daily Weather History Graph

Daily Weather History Graph

Search for Another Location

Airport or City:

Trip Planner

Search our weather history database for the weather conditions in past years. The results will help you decide how hot, cold, wet, or windy it might be!

Date:

Astronomy

Sep. 17, 2014 Rise Set
Actual Time 7:16 AM CDT 7:40 PM CDT
Civil Twilight 6:48 AM CDT 8:08 PM CDT
Nautical Twilight 6:15 AM CDT 8:42 PM CDT
Astronomical Twilight 5:41 AM CDT 9:16 PM CDT
Moon 1:12 AM CDT (9/17) 3:56 PM CDT (9/17)
Length of Visible Light 13h 20m
Length of Day
12h 24m
Waning Crescent, 34% of the Moon is Illuminated
Sep 17
Waning Crescent
Sep 24
New
Oct 1
First Quarter
Oct 8
Full
Oct 15
Last Quarter

Hourly Weather History & Observations

Time (CDT) Temp. Heat Index Dew Point Humidity Pressure Visibility Wind Dir Wind Speed Gust Speed Precip Events Conditions
12:15 AM 55.6 °F - 54.5 °F 96% 29.95 in 10.0 mi South 6.9 mph - N/A   Clear
12:35 AM 55.4 °F - 54.1 °F 96% 29.95 in 10.0 mi South 6.9 mph - N/A   Clear
12:55 AM 54.5 °F - 53.6 °F 97% 29.95 in 10.0 mi South 6.9 mph - N/A   Clear
1:15 AM 54.0 °F - 53.2 °F 97% 29.95 in 10.0 mi South 5.8 mph - N/A   Clear
1:35 AM 53.6 °F - 52.9 °F 97% 29.95 in 10.0 mi South 5.8 mph - N/A   Clear
1:55 AM 52.9 °F - 52.7 °F 99% 29.95 in 10.0 mi South 5.8 mph - N/A   Clear
2:15 AM 52.9 °F - 52.7 °F 99% 29.95 in 10.0 mi South 6.9 mph - N/A   Clear
2:35 AM 52.9 °F - 52.7 °F 99% 29.95 in 10.0 mi South 8.1 mph - N/A   Clear
2:55 AM 52.7 °F - 52.7 °F 100% 29.95 in 10.0 mi South 6.9 mph - N/A   Clear
3:15 AM 52.0 °F - 51.8 °F 99% 29.95 in 10.0 mi South 5.8 mph - N/A   Clear
3:35 AM 52.0 °F - 51.8 °F 99% 29.93 in 10.0 mi South 6.9 mph - N/A   Clear
3:55 AM 52.0 °F - 51.8 °F 99% 29.93 in 10.0 mi South 4.6 mph - N/A   Clear
4:15 AM 52.0 °F - 51.8 °F 99% 29.93 in 7.0 mi South 6.9 mph - N/A   Clear
4:35 AM 50.9 °F - 50.9 °F 100% 29.93 in 5.0 mi South 4.6 mph - N/A   Clear
4:55 AM 50.5 °F - 50.5 °F 100% 29.93 in 5.0 mi South 4.6 mph - N/A   Clear
5:15 AM 50.5 °F - 50.5 °F 100% 29.92 in 5.0 mi South 6.9 mph - N/A   Clear
5:35 AM 50.2 °F - 50.2 °F 100% 29.92 in 5.0 mi South 3.5 mph - N/A   Clear
5:55 AM 49.6 °F - 49.6 °F 100% 29.92 in 4.0 mi South 4.6 mph - N/A   Clear
6:15 AM 49.6 °F - 49.6 °F 100% 29.92 in 4.0 mi South 4.6 mph - N/A   Clear
6:35 AM 48.9 °F - 48.9 °F 100% 29.92 in 3.0 mi South 4.6 mph - N/A   Clear
6:55 AM 48.6 °F - 48.6 °F 100% 29.92 in 1.0 mi Calm Calm - N/A   Mist
7:15 AM 49.1 °F - 49.1 °F 100% 29.92 in 0.5 mi South 4.6 mph - N/A Fog Fog
7:35 AM 48.7 °F - 48.7 °F 100% 29.92 in 0.2 mi Calm Calm - N/A Fog Fog
7:55 AM 49.3 °F - 49.3 °F 100% 29.93 in 0.2 mi SSE 3.5 mph - N/A Fog Fog
8:15 AM 50.9 °F - 50.9 °F 100% 29.93 in 0.2 mi Calm Calm - N/A Fog Fog
8:35 AM 53.6 °F - 53.6 °F 100% 29.93 in 1.2 mi Calm Calm - N/A   Mist
8:55 AM 54.7 °F - 54.7 °F 100% 29.93 in 4.0 mi South 3.5 mph - N/A   Clear
9:15 AM 56.7 °F - 56.7 °F 100% 29.93 in 7.0 mi Calm Calm - N/A   Clear
9:35 AM 58.8 °F - 58.8 °F 100% 29.93 in 10.0 mi Calm Calm - N/A   Clear
9:55 AM 61.7 °F - 59.9 °F 94% 29.93 in 10.0 mi Calm Calm - N/A   Clear
10:15 AM 63.3 °F - 60.4 °F 90% 29.94 in 10.0 mi Calm Calm - N/A   Clear
10:35 AM 66.0 °F - 61.2 °F 84% 29.95 in 10.0 mi Calm Calm - N/A   Clear
10:55 AM 67.5 °F - 61.7 °F 82% 29.95 in 10.0 mi Calm Calm - N/A   Clear
11:15 AM 69.8 °F - 63.0 °F 79% 29.94 in 10.0 mi ENE 3.5 mph - N/A   Clear
11:35 AM 71.2 °F - 62.4 °F 74% 29.94 in 10.0 mi East 3.5 mph - N/A   Clear
11:55 AM 73.4 °F - 62.6 °F 69% 29.94 in 10.0 mi East 5.8 mph - N/A   Clear
12:15 PM 73.9 °F - 63.7 °F 70% 29.93 in 10.0 mi East 4.6 mph - N/A   Clear
12:55 PM 77.0 °F - 62.6 °F 61% 29.93 in 10.0 mi ENE 5.8 mph - N/A   Clear
1:15 PM 77.9 °F - 59.9 °F 54% 29.93 in 10.0 mi East 8.1 mph - N/A   Clear
1:35 PM 79.0 °F - 60.1 °F 52% 29.93 in 10.0 mi East 9.2 mph - N/A   Clear
1:55 PM 79.5 °F - 59.4 °F 50% 29.93 in 10.0 mi East 6.9 mph - N/A   Clear
2:15 PM 79.9 °F - 59.7 °F 50% 29.92 in 10.0 mi East 5.8 mph - N/A   Clear
2:35 PM 79.7 °F - 59.2 °F 49% 29.92 in 10.0 mi East 10.4 mph - N/A   Clear
2:55 PM 80.1 °F 80.8 °F 59.4 °F 49% 29.92 in 10.0 mi East 10.4 mph - N/A   Clear
3:15 PM 78.8 °F - 59.0 °F 51% 29.92 in 10.0 mi East 10.4 mph - N/A   Clear
3:35 PM 77.5 °F - 60.3 °F 55% 29.92 in 10.0 mi ENE 6.9 mph - N/A   Clear
3:55 PM 78.4 °F - 59.9 °F 53% 29.92 in 10.0 mi ENE 8.1 mph - N/A   Clear
4:15 PM 78.8 °F - 58.5 °F 50% 29.92 in 10.0 mi ENE 9.2 mph - N/A   Clear
4:35 PM 79.2 °F - 59.4 °F 51% 29.92 in 10.0 mi ENE 9.2 mph - N/A   Clear
4:55 PM 78.1 °F - 59.4 °F 52% 29.92 in 10.0 mi East 4.6 mph - N/A   Clear
5:15 PM 76.8 °F - 60.8 °F 58% 29.92 in 10.0 mi East 5.8 mph - N/A   Clear
5:35 PM 75.9 °F - 61.5 °F 61% 29.92 in 10.0 mi ENE 5.8 mph - N/A   Clear
5:55 PM 74.5 °F - 61.7 °F 64% 29.93 in 10.0 mi ENE 5.8 mph - N/A   Clear
6:15 PM 73.8 °F - 61.7 °F 66% 29.92 in 10.0 mi ENE 5.8 mph - N/A   Clear
6:35 PM 73.8 °F - 61.9 °F 66% 29.92 in 10.0 mi ENE 5.8 mph - N/A   Clear
6:55 PM 72.7 °F - 62.1 °F 69% 29.93 in 10.0 mi ENE 4.6 mph - N/A   Clear
7:15 PM 69.8 °F - 62.6 °F 78% 29.93 in 10.0 mi NE 6.9 mph - N/A   Clear
7:35 PM 69.1 °F - 61.5 °F 77% 29.93 in 10.0 mi ENE 6.9 mph - N/A   Clear
7:55 PM 68.5 °F - 60.3 °F 75% 29.94 in 10.0 mi ENE 8.1 mph - N/A   Clear
8:15 PM 67.1 °F - 60.1 °F 78% 29.95 in 10.0 mi ENE 6.9 mph - N/A   Clear
8:35 PM 66.7 °F - 60.1 °F 79% 29.96 in 10.0 mi ENE 6.9 mph - N/A   Clear
8:55 PM 66.7 °F - 59.9 °F 79% 29.96 in 10.0 mi East 5.8 mph - N/A   Clear
9:15 PM 64.6 °F - 59.5 °F 84% 29.97 in 10.0 mi East 6.9 mph - N/A   Clear
9:35 PM 63.5 °F - 59.0 °F 85% 29.97 in 10.0 mi East 6.9 mph - N/A   Clear
9:55 PM 62.8 °F - 58.8 °F 87% 29.98 in 10.0 mi East 8.1 mph - N/A   Clear
10:15 PM 63.5 °F - 58.6 °F 84% 29.98 in 10.0 mi East 6.9 mph - N/A   Clear
10:35 PM 62.2 °F - 58.3 °F 87% 29.98 in 10.0 mi East 6.9 mph - N/A   Clear
10:55 PM 64.8 °F - 58.3 °F 79% 29.98 in 10.0 mi East 8.1 mph - N/A   Clear
11:15 PM 63.9 °F - 58.1 °F 81% 29.98 in 10.0 mi East 10.4 mph - N/A   Clear
11:35 PM 64.4 °F - 57.6 °F 78% 29.98 in 10.0 mi East 9.2 mph - N/A   Clear
11:55 PM 63.0 °F - 57.4 °F 82% 29.98 in 10.0 mi East 9.2 mph - N/A   Clear